This is the latest recevied weather packets stored in our database for station/object W2TAO. If no packets are shown the sender has not sent any weather packets the latest 10 day(s).
| Time | Temp. | Humidity | Pressure | Rain* | Wind** | Luminosity | Snow |
|---|---|---|---|---|---|---|---|
| 1777482629 | 13.89° C | 67% | 1014.6 hPa | 0 mm | - | 160 W/m² | - |
| 1777482327 | 13.89° C | 65% | 1014.7 hPa | 0 mm | - | 174 W/m² | - |
| 1777482024 | 13.89° C | 65% | 1014.8 hPa | 0 mm | - | 124 W/m² | - |
| 1777481721 | 13.89° C | 66% | 1015 hPa | 0 mm | - | 111 W/m² | - |
| 1777481419 | 13.89° C | 68% | 1014.9 hPa | 0 mm | - | 115 W/m² | - |
| 1777481115 | 13.89° C | 66% | 1014.8 hPa | 0 mm | - | 122 W/m² | - |
| 1777480811 | 13.89° C | 65% | 1015.1 hPa | 0 mm | - | 154 W/m² | - |
| 1777480509 | 13.89° C | 64% | 1015.1 hPa | 0 mm | - | 184 W/m² | - |
| 1777480205 | 13.89° C | 65% | 1015 hPa | 0 mm | - | 217 W/m² | - |
| 1777479901 | 13.89° C | 66% | 1015.3 hPa | 0 mm | - | 172 W/m² | - |
| 1777479598 | 13.89° C | 66% | 1015.2 hPa | 0 mm | - | 150 W/m² | - |
| 1777479296 | 13.89° C | 67% | 1015.3 hPa | 0 mm | - | 138 W/m² | - |
| 1777478992 | 13.33° C | 66% | 1015.4 hPa | 0 mm | - | 101 W/m² | - |
| 1777478689 | 13.33° C | 66% | 1015.5 hPa | 0 mm | - | 94 W/m² | - |
| 1777478385 | 13.89° C | 67% | 1015.6 hPa | 0 mm | - | 126 W/m² | - |
| 1777478082 | 13.89° C | 67% | 1015.4 hPa | 0 mm | - | 154 W/m² | - |
| 1777477778 | 13.89° C | 67% | 1015.5 hPa | 0 mm | - | 152 W/m² | - |
| 1777477474 | 13.89° C | 68% | 1015.5 hPa | 0 mm | - | 181 W/m² | - |
| 1777477171 | 13.89° C | 67% | 1015.5 hPa | 0 mm | - | 167 W/m² | - |
| 1777476867 | 13.33° C | 68% | 1015.6 hPa | 0 mm | - | 156 W/m² | - |
| 1777476566 | 13.33° C | 70% | 1015.6 hPa | 0 mm | - | 127 W/m² | - |
| 1777476261 | 13.33° C | 69% | 1015.5 hPa | 0 mm | - | 99 W/m² | - |
| 1777475957 | 13.33° C | 67% | 1015.7 hPa | 0 mm | - | 116 W/m² | - |
| 1777475654 | 13.33° C | 67% | 1015.9 hPa | 0 mm | - | 149 W/m² | - |
| 1777475350 | 13.33° C | 67% | 1015.7 hPa | 0 mm | - | 158 W/m² | - |
* Rain latest hour (hover to see other rain measurements)
** Current wind speed in m/s (hover to see current wind gust speed)